Lid_Strength_Index
1 1 0 3 11 12 14 13 9 10 9 6 5 7 8 7 9 12 2 1 0 0 -0 -1 -1 -2 -1 -1 -2 -2 -2 -2 -2 -2 -2 -2 -2 -2 -2 -2 -2 -2 -2 -1 -1 -1 -1 -1 -1
0 2 2 6 13 16 15 10 11 8 7 5 6 6 7 9 5 4 3 1 0 0 -0 -0 -1 -2 -2 -2 -2 -2 -2 -2 -2 -2 -2 -2 -2 -1 -1 -1 -1 -1 -1 -1 -1 -1 -1 -1 -1
0 1 7 10 13 16 15 10 9 7 5 6 7 5 6 8 4 3 1 0 -0 0 -0 -0 -1 -2 -2 -2 -2 -2 -2 -2 -2 -2 -2 -2 -2 -2 -2 -2 -1 -1 -1 -1 -1 -1 -1 -1 -1
2 4 6 12 14 11 11 9 8 7 6 5 6 8 5 3 3 2 1 0 0 0 -0 -1 -1 -2 -2 -2 -1 -2 -2 -2 -2 -2 -2 -2 -2 -2 -1 -1 -1 -1 -1 -1 -1 -1 -1 -1 -1
2 6 12 13 12 10 9 8 7 7 7 6 6 9 7 3 1 1 1 0 1 0 -0 -1 -1 -2 -2 -2 -2 -2 -2 -2 -2 -2 -2 -2 -2 -2 -2 -1 -1 -1 -1 -1 -1 -1 -1 -1 -1
7 7 13 15 13 9 8 7 7 7 7 6 7 7 7 2 2 1 1 1 -0 0 -0 -0 -1 -2 -2 -2 -2 -2 -2 -2 -2 -2 -2 -2 -2 -2 -2 -1 -1 -1 -1 -1 -1 -1 -1 -1 -2
8 10 12 12 11 10 9 6 8 7 7 7 5 9 5 4 2 1 1 0 0 -0 -0 -0 -0 -1 -2 -2 -2 -2 -2 -2 -2 -2 -2 -2 -2 -1 -1 -1 -1 -1 -1 -1 -1 -1 -1 -1 -1
6 9 11 11 11 11 6 5 5 6 7 4 4 9 8 4 1 1 1 1 1 0 -0 -0 0 -0 -0 -0 -2 -2 -2 -2 -2 -2 -2 -2 -1 -1 -1 -1 -1 -1 -1 -1 -1 -1 -1 -1 -1
4 11 13 12 10 9 6 7 5 4 6 6 5 5 4 2 2 2 2 2 1 1 0 0 1 1 1 1 -1 -1 -2 -2 -2 -2 -2 -1 -1 -0 -1 -1 -1 -1 -1 -1 -1 -1 -1 -2 -1
7 11 10 8 7 7 6 6 6 7 7 7 6 4 4 3 3 3 3 3 3 2 2 1 1 1 2 1 1 1 0 0 0 0 0 -0 -0 -0 -1 -1 -1 -1 -1 -1 -1 -2 -1 -1 -0
7 10 8 7 5 5 7 7 5 7 9 7 7 6 4 4 3 4 3 3 3 2 1 1 0 1 0 0 0 1 0 1 -0 -0 -0 -0 -0 0 -0 0 -0 0 -1 -0 0 0 1 1 0
8 7 5 4 5 5 6 4 7 6 7 5 5 4 4 4 4 4 3 3 2 2 1 1 0 0 0 -0 -0 0 0 1 0 0 0 -0 -0 1 0 0 0 0 0 0 1 1 -0 -0 -1
7 5 5 4 5 5 5 6 5 7 5 4 4 4 5 4 4 3 3 2 2 2 1 1 0 1 1 0 -0 0 0 0 -0 -0 -0 -0 0 1 0 0 0 0 0 0 1 -0 -0 0 -0
5 5 6 5 5 5 6 5 6 6 5 5 5 5 5 4 4 3 3 3 2 2 2 1 0 1 1 0 1 1 1 0 -0 -0 0 -0 -0 -0 -0 0 0 0 0 0 1 1 0 0 -0
5 7 7 6 5 5 5 8 9 6 5 6 6 5 5 4 3 4 3 3 2 2 1 1 1 0 0 0 0 1 1 0 -0 -0 -0 -0 -0 -0 0 0 1 1 0 0 1 0 1 0 0
7 8 11 7 6 5 6 12 8 5 6 7 6 5 5 4 4 3 2 2 2 2 2 1 0 0 1 1 0 1 0 0 -0 -0 -1 -1 -1 -1 0 0 1 1 0 0 0 2 1 1 1
9 13 10 9 6 6 7 10 8 6 7 7 7 6 6 5 4 3 2 2 2 2 2 1 1 1 1 1 0 0 -0 0 0 -0 -0 -0 -0 -0 0 0 1 0 1 2 0 0 1 1 1
12 12 10 10 8 8 9 10 8 7 7 8 7 7 6 5 5 3 2 2 2 1 1 1 1 1 1 1 1 1 0 1 1 0 -0 -0 -0 -0 0 0 1 1 1 2 1 1 0 1 1
9 10 10 9 7 9 9 10 9 8 7 8 7 7 6 6 4 3 2 2 2 2 2 2 2 2 1 1 2 1 2 1 1 1 -0 -0 -0 -0 0 0 0 1 1 1 1 1 2 1 2
9 10 10 8 7 8 9 10 9 8 8 7 7 7 7 6 5 4 3 2 2 2 2 2 2 1 1 1 1 1 1 1 1 0 0 -0 -0 -0 0 0 0 1 1 2 3 2 2 1 2
9 11 10 10 8 8 9 11 10 9 8 7 6 6 5 5 5 6 4 3 2 2 2 2 2 1 1 1 1 1 1 1 2 1 1 0 -0 -0 0 0 1 1 1 1 1 1 2 3 1
12 8 8 9 11 14 10 16 11 10 10 8 7 6 6 5 5 5 4 4 3 2 2 2 1 2 1 1 1 2 2 3 2 1 1 0 -0 0 -0 0 2 2 1 2 2 1 3 2 3
10 8 9 10 12 13 13 15 13 10 11 10 8 7 6 5 5 4 5 3 3 2 2 1 1 1 1 1 1 2 2 2 2 1 2 1 1 0 -0 0 1 4 0 3 2 2 1 2 2
8 9 10 10 12 17 14 15 15 12 10 9 8 7 6 5 5 4 4 3 3 2 2 2 2 2 1 1 2 1 2 2 2 2 2 1 1 0 1 0 0 1 1 1 1 1 1 1 2
10 13 16 16 16 19 14 15 14 10 8 8 8 7 6 5 5 5 5 5 3 3 2 2 2 2 1 1 1 1 1 2 2 2 2 2 2 1 1 0 1 1 1 1 0 1 1 1 2
11 13 15 18 19 18 13 17 14 8 7 7 6 6 6 5 4 4 4 4 3 3 2 2 2 2 2 1 1 1 1 1 2 2 2 1 2 1 1 1 1 1 1 0 0 1 1 1 1
11 13 11 14 15 17 16 14 10 9 8 7 7 6 6 5 5 4 4 3 3 3 3 2 2 2 2 1 1 1 1 1 2 1 1 2 1 0 1 1 0 1 1 0 1 1 1 1 1
9 9 13 13 18 19 17 17 16 12 11 9 8 8 6 6 5 4 4 4 3 3 2 2 2 2 2 1 1 1 1 1 1 1 1 1 1 1 1 0 1 0 0 1 0 1 1 2 1
11 11 12 11 14 18 20 17 11 11 10 9 8 7 6 6 5 5 4 3 3 2 2 2 2 2 2 1 1 1 1 1 1 2 1 1 1 1 1 1 1 1 1 0 1 2 1 2 1
8 10 12 14 15 14 16 17 9 7 8 8 8 7 6 5 5 4 4 4 3 3 3 3 2 2 2 2 2 2 2 1 1 1 1 1 2 2 2 1 1 1 1 2 1 1 1 2 2